Weather History for KGED - February, 2014

Change the Weather History Date:

Monday, February 17, 2014

  Actual Average Record
Temperature  
Mean Temperature 30 °F 38 °F  
Max Temperature 36 °F 47 °F 72 °F (1976)
Min Temperature 23 °F 29 °F 3 °F (1979)
Degree Days  
Heating Degree Days 35 27  
Month to date heating degree days 530 483  
Since 1 July heating degree days 3076 2993  
Cooling Degree Days 0 0  
Month to date cooling degree days 0 0  
Year to date cooling degree days 0 0  
Moisture  
Dew Point 12 °F    
Average Humidity 48    
Maximum Humidity 68    
Minimum Humidity 27    
Precipitation  
Precipitation 0.00 in 0.10 in 1.01 in (1952)
Month to date precipitation 3.46 1.67  
Year to date precipitation 6.50 4.59  
Sea Level Pressure  
Sea Level Pressure 30.36 in    
Wind  
Wind Speed 6 mph (NNE)    
Max Wind Speed 14 mph    
Max Gust Speed 19 mph    
Visibility 10 miles    
Events      
T = Trace of Precipitation, MM = Missing Value Source: NWS Daily Summary

Daily Weather History Graph

Daily Weather History Graph

Search for Another Location

Airport or City:

Trip Planner

Search our weather history database for the weather conditions in past years. The results will help you decide how hot, cold, wet, or windy it might be!

Date:

Astronomy

Feb. 17, 2014 Rise Set
Actual Time 6:49 AM EST 5:41 PM EST
Civil Twilight 6:22 AM EST 6:08 PM EST
Nautical Twilight 5:51 AM EST 6:39 PM EST
Astronomical Twilight 5:21 AM EST 7:10 PM EST
Moon 8:31 PM EST (2/17) 7:51 AM EST (2/17)
Length of Visible Light 11h 45m
Length of Day
10h 51m
Waning Gibbous, 93% of the Moon is Illuminated
Feb 17
Waning Gibbous
Feb 22
Last Quarter
Mar 1
New
Mar 8
First Quarter
Mar 16
Full

Hourly Weather History & Observations

Time (EST) Temp. Windchill Dew Point Humidity Pressure Visibility Wind Dir Wind Speed Gust Speed Precip Events Conditions
12:54 AM 28.9 °F 22.8 °F 17.1 °F 61% 30.22 in 10.0 mi Variable 5.8 mph - N/A   Clear
1:54 AM 28.0 °F 20.8 °F 17.1 °F 63% 30.24 in 10.0 mi Variable 6.9 mph - N/A   Clear
2:54 AM 28.0 °F 20.8 °F 17.1 °F 63% 30.26 in 10.0 mi North 6.9 mph - N/A   Scattered Clouds
3:54 AM 26.1 °F 21.9 °F 17.1 °F 69% 30.29 in 10.0 mi North 3.5 mph - N/A   Partly Cloudy
4:54 AM 26.1 °F 17.6 °F 14.0 °F 60% 30.32 in 10.0 mi North 8.1 mph - N/A   Mostly Cloudy
5:54 AM 24.1 °F 15.2 °F 10.0 °F 55% 30.35 in 10.0 mi NNW 8.1 mph - N/A   Clear
6:54 AM 23.0 °F 13.1 °F 9.0 °F 55% 30.38 in 10.0 mi North 9.2 mph - N/A   Clear
7:54 AM 24.1 °F 15.2 °F 8.1 °F 51% 30.42 in 10.0 mi NNW 8.1 mph - N/A   Clear
8:54 AM 25.0 °F 14.2 °F 5.0 °F 43% 30.44 in 10.0 mi NNW 11.5 mph 16.1 mph N/A   Clear
9:54 AM 27.0 °F 18.0 °F 3.9 °F 37% 30.45 in 10.0 mi North 9.2 mph 17.3 mph N/A   Clear
10:54 AM 30.0 °F 23.2 °F 3.9 °F 33% 30.43 in 10.0 mi Variable 6.9 mph - N/A   Clear
11:54 AM 30.9 °F 25.2 °F 5.0 °F 33% 30.42 in 10.0 mi Variable 5.8 mph - N/A   Clear
12:54 PM 33.1 °F 26.1 °F 5.0 °F 31% 30.40 in 10.0 mi NNE 8.1 mph - N/A   Clear
1:54 PM 35.1 °F 31.0 °F 5.0 °F 28% 30.40 in 10.0 mi North 4.6 mph - N/A   Clear
2:54 PM 36.0 °F 32.1 °F 6.1 °F 29% 30.38 in 10.0 mi Variable 4.6 mph - N/A   Clear
3:54 PM 34.0 °F 27.2 °F 12.0 °F 40% 30.38 in 10.0 mi NE 8.1 mph - N/A   Clear
4:54 PM 32.0 °F 24.8 °F 14.0 °F 48% 30.38 in 10.0 mi ENE 8.1 mph - N/A   Clear
5:54 PM 28.9 °F 23.9 °F 12.9 °F 51% 30.38 in 10.0 mi NE 4.6 mph - N/A   Clear
6:54 PM 28.0 °F - 12.9 °F 53% 30.38 in 10.0 mi Calm Calm - N/A   Clear
7:54 PM 26.1 °F - 15.1 °F 63% 30.37 in 10.0 mi Calm Calm - N/A   Clear
8:54 PM 27.0 °F 21.6 °F 16.0 °F 63% 30.36 in 10.0 mi SE 4.6 mph - N/A   Scattered Clouds
9:54 PM 28.0 °F 21.7 °F 17.1 °F 63% 30.35 in 10.0 mi SSE 5.8 mph - N/A   Scattered Clouds
10:54 PM 28.9 °F 23.9 °F 18.0 °F 64% 30.34 in 10.0 mi South 4.6 mph - N/A   Overcast
11:54 PM 30.0 °F 21.7 °F 19.9 °F 66% 30.25 in 10.0 mi ESE 9.2 mph - N/A   Clear